TimeEDT,TemperatureF,Dew PointF,Humidity,Sea Level PressureIn,VisibilityMPH,Wind Direction,Wind SpeedMPH,Gust SpeedMPH,PrecipitationIn,Events,Conditions,WindDirDegrees,DateUTC
12:54 AM,57.0,54.0,89,30.15,10.0,South,3.5,-,N/A,,Clear,180,2013-04-08 04:54:00
1:54 AM,55.0,53.1,93,30.14,10.0,Calm,Calm,-,N/A,,Clear,0,2013-04-08 05:54:00
2:54 AM,53.1,53.1,100,30.13,9.0,Calm,Calm,-,N/A,,Clear,0,2013-04-08 06:54:00
3:54 AM,50.0,50.0,100,30.13,1.5,Calm,Calm,-,N/A,,Clear,0,2013-04-08 07:54:00
3:57 AM,48.2,48.2,100,30.13,0.8,Calm,Calm,-,N/A,,Mist,0,2013-04-08 07:57:00
4:12 AM,50.0,50.0,100,30.13,0.2,Calm,Calm,-,N/A,Fog,Fog,0,2013-04-08 08:12:00
4:45 AM,48.2,46.4,93,30.13,0.2,Calm,Calm,-,N/A,Fog,Fog,0,2013-04-08 08:45:00
4:54 AM,48.9,48.0,97,30.13,0.2,Calm,Calm,-,N/A,Fog,Fog,0,2013-04-08 08:54:00
5:12 AM,48.2,48.2,100,30.14,0.5,Calm,Calm,-,N/A,Fog,Fog,0,2013-04-08 09:12:00
5:54 AM,46.0,46.0,100,30.14,0.2,Calm,Calm,-,N/A,Fog,Fog,0,2013-04-08 09:54:00
6:30 AM,48.2,48.2,100,30.16,1.5,Calm,Calm,-,N/A,,Overcast,0,2013-04-08 10:30:00
6:36 AM,48.2,48.2,100,30.16,0.8,Calm,Calm,-,N/A,,Mist,0,2013-04-08 10:36:00
6:54 AM,48.0,48.0,100,30.17,0.2,Calm,Calm,-,N/A,Fog,Fog,0,2013-04-08 10:54:00
7:54 AM,50.0,50.0,100,30.19,0.2,Calm,Calm,-,N/A,Fog,Fog,0,2013-04-08 11:54:00
8:34 AM,55.4,55.4,100,30.20,1.2,Calm,Calm,-,N/A,,Mostly Cloudy,0,2013-04-08 12:34:00
8:38 AM,55.4,55.4,100,30.20,2.0,Calm,Calm,-,N/A,,Mostly Cloudy,0,2013-04-08 12:38:00
8:47 AM,57.2,57.2,100,30.20,4.0,Calm,Calm,-,N/A,,Scattered Clouds,0,2013-04-08 12:47:00
8:54 AM,59.0,57.9,96,30.20,6.0,Calm,Calm,-,N/A,,Partly Cloudy,0,2013-04-08 12:54:00
9:54 AM,64.9,57.9,78,30.20,10.0,SW,6.9,-,N/A,,Clear,220,2013-04-08 13:54:00
10:54 AM,69.1,57.9,68,30.20,10.0,WSW,5.8,-,N/A,,Clear,240,2013-04-08 14:54:00
11:54 AM,72.0,55.9,57,30.19,10.0,WSW,8.1,-,N/A,,Clear,250,2013-04-08 15:54:00
12:54 PM,73.9,55.0,52,30.17,10.0,SW,9.2,16.1,N/A,,Clear,230,2013-04-08 16:54:00
1:54 PM,75.0,57.9,55,30.14,10.0,West,8.1,-,N/A,,Clear,260,2013-04-08 17:54:00
2:54 PM,77.0,57.0,50,30.12,10.0,SSW,9.2,-,N/A,,Mostly Cloudy,200,2013-04-08 18:54:00
3:54 PM,75.9,55.9,50,30.10,10.0,WSW,6.9,-,N/A,,Mostly Cloudy,240,2013-04-08 19:54:00
4:54 PM,78.1,54.0,43,30.09,10.0,SSW,8.1,-,N/A,,Scattered Clouds,210,2013-04-08 20:54:00
5:54 PM,75.9,54.0,46,30.09,10.0,WSW,11.5,-,N/A,,Clear,240,2013-04-08 21:54:00
6:54 PM,73.9,57.0,55,30.09,10.0,Variable,3.5,-,N/A,,Clear,0,2013-04-08 22:54:00
7:54 PM,70.0,54.0,57,30.11,10.0,SSE,8.1,-,N/A,,Clear,160,2013-04-08 23:54:00
8:54 PM,66.0,54.0,65,30.12,10.0,South,5.8,-,N/A,,Clear,170,2013-04-09 00:54:00
9:54 PM,64.0,55.9,75,30.14,10.0,South,4.6,-,N/A,,Clear,180,2013-04-09 01:54:00
10:54 PM,63.0,55.9,78,30.15,10.0,Variable,3.5,-,N/A,,Clear,0,2013-04-09 02:54:00
11:54 PM,61.0,57.0,87,30.15,10.0,South,4.6,-,N/A,,Clear,180,2013-04-09 03:54:00